MIDAS 6 (FTV 1169)

Satellite information

Favourite Embed

Satellite Type and Status

PAYLOADIN ORBIT

Key statistics

Satellite MIDAS 6 (FTV 1169) at a glance.

Uptime

22706

Days in orbit

Revolutions

≈ 8.7

Per day

Orbit

MEO

Medium Earth Orbit

Inclination

87.3

Latest

Satellite identification and parameters

Extended collection of information and parameters for MIDAS 6 (FTV 1169).

Object identification

Identified? True

Debris? False

Object name: MIDAS 6 (FTV 1169)

International designator: 1963-014A

Object number (NORAD): 574

Object ID (CCSDS): 574

Country: UNITED STATES OF AMERICA (US)

Current information (Y/N): Y

RCS size: LARGE

Orbital parameters

Period: 166.421 minutes

Inclination: 87.3292 deg

SMA: 10022.255 km

Apoapsis: 3676.188 km

Periapsis: 3612.052 km

RAAN: 228.3983 deg

Eccentricy: 0.0031997

Argument of periapsis: 99.2868 deg

Mean anomaly: 261.1607 deg

Mean motion: 8.65275836 rev/day

Mean motion (dot): 0.00000022 rev/day2

B* drag term: 0.0088062 1/REarth

Two-line elements (TLE)

Creation date: July 7, 2025, 6:34 p.m.

Reference frame: TEME

Reference center: EARTH

Epoch: July 7, 2025, 10:55 a.m. UTC

TLE line 0: 0 MIDAS 6 (FTV 1169)

TLE line 1: 1 00574U 63014A 25188.45488729 .00000022 00000-0 88062-2 0 9991

TLE line 2: 2 00574 87.3292 228.3983 0031997 99.2868 261.1607 8.65275836187969

Live tracking on map

Real-time ground track for satellite MIDAS 6 (FTV 1169).

In-orbit conjunctions

There are no conjunctions computed for MIDAS 6 (FTV 1169), at the moment. Check back to stay up to date, as we update our databases every day.

Go to all conjunctions

Associated space launch

MIDAS Series 3 (Military Defense Alarm System) early warning satellite.

MIDAS 6 (FTV 1169) was lifted into orbit during the mission ‘Atlas Agena B | Midas 7’, on board a Atlas Agena B space rocket.

The launch took place on May 9, 1963, 8:06 p.m. from Space Launch Complex 3E.

For more information about the launch, click the button.

Launch to space Atlas Agena B | Midas 7
Atlas Agena B | Midas 7

Agency: N/A

Status: Launch Successful

Launch date: May 9, 1963, 8:06 p.m. UTC

Rocket: Atlas Agena B

Launch pad: Space Launch Complex 3E

Location: Vandenberg SFB, CA, USA

...

Latest news about this satellite

There are no fresh news available about this satellite. Check back as we update our databases every day.


Newsletter sign-up

Weekly statistics, charts and insights to help you stay on top of the space industry.